Overview Statistics Trail Chart Weather Telemetry Raw packets
 

This is the latest recevied weather packets stored in our database for station/object LU3HGB-WX. If no packets are shown the sender has not sent any weather packets the latest 10 day(s).

<< 20 21 22 23 24 25 26 >>
Time Temp. Humidity Pressure Rain* Wind** Luminosity Snow
1788543160 18.33° C 28% 1018 hPa 0 mm - 504 W/m² -
1788542859 18.33° C 26% 1018 hPa 0 mm - 605 W/m² -
1788542559 18.33° C 30% 1018 hPa 0 mm - 706 W/m² -
1788542260 18.33° C 27% 1018 hPa 0 mm - 598 W/m² -
1788541960 18.33° C 28% 1018 hPa 0 mm - 1135 W/m² -
1788541660 17.22° C 31% 1018 hPa 0 mm - 1142 W/m² -
1788541360 17.22° C 29% 1018 hPa 0 mm - 507 W/m² -
1788541061 17.22° C 30% 1018 hPa 0 mm - 548 W/m² -
1788540760 17.22° C 30% 1018 hPa 0 mm - 485 W/m² -
1788540459 17.22° C 29% 1019 hPa 0 mm - 459 W/m² -
1788540159 17.22° C 27% 1019 hPa 0 mm - 453 W/m² -
1788539861 17.22° C 26% 1019 hPa 0 mm - 447 W/m² -
1788539559 17.22° C 29% 1019 hPa 0 mm - 383 W/m² -
1788539259 17.22° C 29% 1019 hPa 0 mm - 407 W/m² -
1788538960 17.22° C 26% 1019 hPa 0 mm - 436 W/m² -
1788538660 17.22° C 28% 1019 hPa 0 mm - 500 W/m² -
1788538359 17.22° C 28% 1019 hPa 0 mm - 500 W/m² -
1788538061 17.22° C 28% 1019 hPa 0 mm - 501 W/m² -
1788537759 17.22° C 28% 1019 hPa 0 mm - 520 W/m² -
1788537459 17.22° C 28% 1019 hPa 0 mm - 562 W/m² -
1788537159 17.22° C 28% 1019 hPa 0 mm - 715 W/m² -
1788536860 17.22° C 27% 1019 hPa 0 mm - 826 W/m² -
1788536561 16.67° C 29% 1019 hPa 0 mm - 657 W/m² -
1788536260 16.67° C 29% 1020 hPa 0 mm - 437 W/m² -
1788535960 16.67° C 27% 1020 hPa 0 mm - 534 W/m² -

* Rain latest hour (hover to see other rain measurements)
** Current wind speed in m/s (hover to see current wind gust speed)